KDPA

Dupage Airport

ICAO Code KDPA
IATA Code DPA
Name Dupage Airport
Location Chicago/West Chicago, Illinois, US
Elevation 759 Feet / 231.3 Meters
Latitude 41.90779877
Longitude -88.24859619
METAR KDPA 251752Z VRB05KT 10SM CLR 22/06 A2988 RMK AO2 SLP115 T02220061 10222 20128 58000
Extra information Display Charts
Runway Length Width Surface Elevation
02L 7570 ft 100 ft CON 751 ft
02R 5100 ft 100 ft CON 758 ft
10 4751 ft 75 ft ASP 753 ft
15 3401 ft 100 ft ASP 757 ft
20R 7570 ft 100 ft CON 756 ft
20L 5100 ft 100 ft CON 754 ft
28 4751 ft 75 ft ASP 756 ft
33 3401 ft 100 ft ASP 758 ft